Find Starlink 31307

NORAD ID: 59089 Int'l Des: 2024-041 Owner: SPXS Country: US Constellation: starlink operational
LEOCIRCULAR

リアルタイム位置

3D地球を読み込み中...

Starlink 31307について

説明を読み込み中...

次回通過

Passes for default location (London). Set your location on the main map for personalized predictions.

高度履歴

Loading altitude history...

軌道要素

1 59089U 24041R 26121.06459646 .00000842 00000-0 40097-4 0 9992
2 59089 43.0005 14.7468 0000755 261.9665 98.1101 15.27591571122331
Epoch: May 1, 2026 • Age: 14 hours

現在のステータス

高度 482.4 km
速度 7.63 km/s
衛星直下点 17.08°N, 65.82°W
打ち上げ日 Feb 29, 2024
運用期間 2.1 years
タイプ internet

技術仕様

分類 Payload
質量 730.00 kg
乾燥質量 700.00 kg
総質量 730.00 kg
長さ 0.30 m
直径 4.10 m
スパン 29.00 m
形状 Box + pan
製造者 SPXS
バスタイプ Starlink V2M
フェーズステータス In Orbit
所有者/国 SPXS/US

Most Searched